星链-31216 (STARLINK-31216 )

导读

STARLINK-31216是美国SpaceX公司星链(Starlink)互联网卫星星座中的一员,于2024年1月29日发射入轨,属于星链星座组网的批次卫星。它运行在近地轨道,作为SpaceX全球卫星互联网计划的组成部分,承担着为地面偏远地区等传统网络覆盖不足区域,提供低延迟、高速宽带互联网接入服务,助力星链星座完成全球网络覆盖布局,截至2026年3月已在轨运行超两年,为星链网络稳定运营提供支撑。

基本信息
目录编号:
58857
目录名称:
STARLINK-31216
国际标识:
2024-019E
轨道中心:
EARTH
卫星名称:
星链-31216
卫星全名:
星链-31216 (STARLINK-31216 )
卫星状态:
已陨落 最后检测时间 2025-10-07
发射日期:
2024-01-29 UTC
国别 :
美国 (US)
星等 :
--
该卫星已列入 空间交会检测服务 Space Conjunction Data Service (SCDS) ,当前飞行风险评估等级: 无高风险
轨道信息
数据来源 国际轨道数据
星历时间: 2025-10-06T23:00:52+0800
轨道信息已过期340天
半长轴: 6598.21km
偏心率: 0.000447
轨道倾角: 42.996°
近地点辐角 283.361°
升交点赤经 8.834°
平近点角 222.688°
近地点: 217.125km
远地点: 223.025km
周期: 88.899分钟
每日圈数: 16.198082
详细信息
固有亮度:
5
最大亮度:
0.3
卫星平台:
Starlink v2.0 mini
覆盖范围:
全球
运营商:
太空探索技术公司
运营商所在国:
美国
制造商(研发单位):
太空探索技术公司
制造商所在国:
美国
使用方式:
暂无
卫星简介
星链(Starlink)计划是由太空探索技术公司(SpaceX)提出的一个巨型低轨卫星互联网星座项目,计划在2019年至2024年间在太空搭建由约1.2万颗卫星组成的“星链”网络,其中1584颗将部署在地球上空550千米处的近地轨道,并从2020年开始工作。该卫星仍在工作。
与全量物体交会距离演化趋势
与全量物体交会风险概率演化趋势